Hundvaag 1 weather for Mar 1989
Month no. 21
Obs.
Da.
Temp. Dew Point Precip. Wind
Speed
Wind gusts Cloud cover Press. Humidity Wind dir. Sunny OPT
01.03.1989 3,9   3,0                
02.03.1989 2,6   1,2                
03.03.1989 1,3   0,0                
04.03.1989 4,0   0,0                
05.03.1989 4,8   4,1             1  
06.03.1989 8,4   0,9                
07.03.1989 10,8   0,0                
08.03.1989 1,3   9,8             1  
09.03.1989 3,7   1,4                
10.03.1989 7,3   25,4             1  
11.03.1989 6,7   1,0             1  
12.03.1989 8,2   0,0             1  
13.03.1989 5,4   0,0                
14.03.1989 3,2   8,2             1  
15.03.1989 3,7   3,4                
16.03.1989 -0,2   7,3             1  
17.03.1989 0,0   2,0             1  
18.03.1989 4,5   4,1                
19.03.1989 7,4   27,0             1  
20.03.1989 5,4   10,6                
21.03.1989 1,8   5,1             1  
22.03.1989 1,2   24,3                
23.03.1989 2,0   8,1             1  
24.03.1989 2,9   15,0                
25.03.1989 1,1   16,8             1  
26.03.1989 5,0   1,6                
27.03.1989 10,0   1,6             1  
28.03.1989 8,0   0,0             1  
29.03.1989 2,1   14,7             1  
30.03.1989 5,9   14,0                
31.03.1989 6,5   7,8             1  
Avrg/Sum 4,5   218,4             16